Location: Marsån
(66.4167°N, 22.2833°E)
Time: 07:36:45
(UTC+00:00)

Helios 1A - Pass Details

Date: 24 February 2024
Orbit: 570 x 580 km, 98.3° (Epoch: 30 March)

Event Time Altitude Azimuth Distance (km) Brightness Sun altitude
Rises 17:54:44 0° 21° (NNE) 2,815 6.3 -15.7°
Reaches altitude 10° 17:56:54 10° 19° (NNE) 1,914 5.5 -15.9°
Maximum altitude 18:01:00 67° 298° (WNW) 639 3.3 -16.3°
Drops below altitude 10° 18:05:07 10° 216° (SW) 1,909 5.8 -16.7°
Sets 18:07:17 0° 214° (SSW) 2,807 6.7 -16.9°
